Preview of NWS' New Version of Forecast
This preview is not operational and should not be used for support decisions.

Regional Weather Roundup (RWR)

Issued by National Weather Service (NWS)

                            
000
ASUS44 KJAN 182210
RWRMS 

MISSISSIPPI HOURLY WEATHER ROUNDUP
NATIONAL WEATHER SERVICE JACKSON MS
400 PM CST MON FEB 18 2019

NOTE: "FAIR: INDICATES FEW OR NO CLOUDS BELOW 12,000 FEET WITH NO
SIGNIFICANT WEATHER AND/OR OBSTRUCTIONS TO VISIBILITY.

MSZ001>002-007>008-010>013-018>021-025>028-034>036-182300-
NORTHWEST MISSISSIPPI
  
CITY           SKY/WX    TMP DP  RH WIND       PRES   REMARKS
BATESVILLE     FAIR      45  27  49 N6G12     30.35R                  
CLARKSDALE     SUNNY     43  30  61 N17       30.37S                  
CLEVELAND      FAIR      41  31  67 N14       30.35F                  
GREENWOOD      FAIR      46  30  53 N10       30.32S                  
GREENVILLE     FAIR      42  30  62 N17       30.33F                  
OLIVE BRANCH   CLOUDY    39  25  56 N13G20    30.36S WCI  32          
OXFORD         FAIR      41  27  56 NE9       30.36S                  
TUNICA           N/A     37  28  70 N13       30.39R WCI  29          
WINONA         FAIR      44  32  60 N13       30.30S                  
$$

MSZ003>006-009-014>017-022>024-029>033-037>039-182300-
NORTHEAST MISSISSIPPI
  
CITY           SKY/WX    TMP DP  RH WIND       PRES   REMARKS
ABERDEEN       FAIR      46  36  66 NW10      30.34S                  
COLUMBUS AFB   FAIR      46  34  63 N10       30.30S                  
CORINTH        FAIR      43  27  52 N8G15     30.35R                  
GOLDN TRIANGLE FAIR      47  35  63 N12       30.30S                  
STARKVILLE     FAIR      45  34  65 N6G16     30.32S                  
TUPELO         FAIR      44  30  57 NE9       30.34R                  
$$

MSZ040-058-182300-
CENTRAL MISSISSIPPI
  
CITY           SKY/WX    TMP DP  RH WIND       PRES   REMARKS
JACKSON INTL   PTSUNNY   54  35  48 N10       30.25R                  
JACKSON HAWKNS FAIR      54  36  50 NE8       30.26R                  
MADISON        FAIR      50  34  53 N8        30.25R                  
MERIDIAN KEY   FAIR      55  32  41 NE14      30.26R                  
MERIDIAN NAS   FAIR      53  36  52 N12       30.27R                  
RAYMOND        FAIR      52  32  46 VRB7      30.26R                  
VICKSBURG VKS  CLEAR     50  36  57 N16       30.27S                  
$$

MSZ059>079-182300-
SOUTH MISSISSIPPI
  
CITY           SKY/WX    TMP DP  RH WIND       PRES   REMARKS
HATTIESBURG    CLOUDY    55  34  45 N10       30.23R                  
LAUREL         CLOUDY    49  40  71 NE7       30.23S                  
MCCOMB         CLOUDY    56  31  38 NE7       30.19F                  
NATCHEZ        CLOUDY    50  36  58 N14       30.23S                  
PINE BELT      CLOUDY    51  43  74 NW6       30.25R                  
$$

MSZ080>082-182300-
COASTAL MISSISSIPPI
  
CITY           SKY/WX    TMP DP  RH WIND       PRES   REMARKS
BAY ST LOUIS   CLOUDY    57  37  47 NE12      30.16R                  
BILOXI         CLOUDY    55  44  66 NE12      30.14F                  
PASCAGOULA     CLOUDY    57  45  64 N7        30.16R                  
GULFPORT       LGT RAIN  56  42  59 N10       30.14F                  
$$

LAZ007>009-015>016-023>026-182300-
NORTHEAST LOUISIANA
  
CITY           SKY/WX    TMP DP  RH WIND       PRES   REMARKS
BASTROP        FAIR      44  26  48 N8        30.31S                  
TALLULAH/VBURG FAIR      45  35  68 N15       30.29R                  
VIDALIA        CLOUDY    51  37  59 N13       30.22F                  
$$